Vertical_Velocity
1 4 -2 -6 -4 -3 3 2 1 -4 -1 3 -1 -1 -5 -5 4 1 -2 -3 -4 -8 -12 -7 2 -11 -4 3 3 18 8 -5 1 8 -2 0 2 -5 0 -1 -1 -1 1 1
5 -2 -5 0 1 2 1 1 -4 -5 -2 6 -1 -8 -5 -1 -7 -2 -2 -3 -3 0 -2 -3 -5 6 -1 -12 -3 4 15 3 -3 0 8 7 2 1 0 -1 1 5 5 7
-3 0 1 4 0 1 -1 1 -1 5 -3 -4 5 -7 0 -4 3 3 -4 -7 -3 -3 -1 0 2 -2 2 2 -14 -2 8 12 1 5 6 -6 10 5 -0 0 3 -3 -0 7
-2 -4 0 2 -0 0 2 -0 1 -0 -0 -1 -2 -9 -3 -3 -2 1 -1 0 -4 -4 -3 -2 -7 -3 15 -1 -1 -11 7 5 11 4 -2 -6 2 -3 -5 3 1 7 4 3
-7 1 1 1 -5 0 -4 -1 1 1 0 0 -1 3 -14 2 -1 -2 -0 -5 -4 -3 3 6 5 -3 -14 -2 19 2 -8 7 12 3 -2 4 1 4 7 -1 1 1 3 3
-1 0 1 -6 -1 0 2 -1 1 1 1 3 -7 -1 -10 -2 -4 0 -1 2 8 6 -0 -6 -2 1 -2 -0 -3 3 9 5 10 5 -6 3 3 -2 -4 0 -2 2 3 0
1 -1 1 2 2 2 0 -0 -1 1 3 -8 -0 6 -20 -2 -1 1 -1 -3 -0 -3 -6 -1 -11 -11 4 -3 -5 7 6 12 -0 2 -3 2 2 3 6 2 -3 -1 -3 -4
-2 5 -1 -1 -3 -6 -3 -3 -2 -1 1 -1 -1 -4 -16 -5 -2 2 -3 -10 -4 4 2 -5 -2 -6 -6 9 -3 5 2 4 7 -2 -6 12 -8 2 2 1 -1 2 3 2
-1 0 7 -1 -0 1 3 2 -2 2 -1 3 -4 -8 -11 -2 -4 -1 -3 4 -2 1 -1 -1 -2 -11 -8 2 9 -0 1 -3 6 -2 5 2 2 1 -0 3 8 5 3 6
1 1 -0 5 3 0 -6 -4 -7 1 -1 -1 -3 -3 -8 -2 -1 -1 -2 -1 0 2 11 -1 -3 -14 -8 7 2 9 1 1 4 1 -3 -4 6 2 4 5 -0 0 4 3
-1 2 5 -5 -0 -5 3 2 1 0 1 -1 0 -6 2 2 2 1 -0 2 7 2 2 -3 -7 -12 -6 -0 13 5 4 5 9 5 -2 3 1 2 2 4 2 2 5 2
-2 -1 -0 -10 -7 -4 -3 -4 -1 2 -5 -2 3 -21 -1 1 1 1 -1 -2 -4 7 -6 -3 -2 -7 -11 2 2 4 4 14 10 -2 0 1 6 4 3 0 -2 8 2 5
-0 -0 -1 -2 5 4 1 -2 -1 0 4 -7 9 -22 -2 -1 -1 -1 -1 -5 -6 -1 12 5 1 -8 -8 3 -3 15 21 10 -4 1 3 3 6 0 1 2 2 1 4 2
-0 0 -2 -4 -3 -2 -2 -0 -0 4 6 -7 -12 -17 -12 -9 -1 -4 -4 -1 2 -7 6 -5 -1 -9 -4 1 9 6 8 2 1 3 2 3 3 3 0 -2 1 -6 0 2
1 0 2 -2 -1 2 1 1 -2 5 -8 13 -20 3 -11 -3 1 -3 -7 7 -1 5 3 -4 3 -4 -7 7 3 6 6 4 3 3 7 5 5 6 1 3 3 -9 1 -0
1 -4 0 -4 -1 2 1 -1 0 -0 -3 1 3 -11 1 -5 -1 -0 5 -0 -2 -2 -0 3 3 -5 -1 6 5 2 2 1 2 5 5 3 3 3 3 6 8 9 1 1
-2 -1 1 -3 0 -0 3 -4 -1 -1 -0 3 3 -6 -1 -4 -1 1 -2 -0 -2 -4 -5 -4 7 4 -1 4 6 2 1 2 4 9 6 10 9 13 1 -4 20 -4 6 3
-1 0 1 -1 -1 -1 -5 -0 -2 0 -2 -1 -2 -2 0 1 -1 7 1 -0 -4 -1 -1 5 6 -2 2 4 -0 -2 1 -3 4 3 -1 3 -2 4 -4 14 -9 2 7 -0
-1 -1 -0 2 0 -10 -2 -3 -1 0 -8 1 1 -2 -1 2 -2 -1 -4 8 3 5 5 -5 1 2 -0 -1 -1 -1 0 2 3 6 -1 -7 0 -14 11 -2 11 -1 -6 4
3 -0 -0 -0 2 0 -4 1 -0 -0 -3 -0 1 0 1 -2 -1 1 -2 7 0 1 4 5 6 4 4 6 7 3 -1 -4 -3 0 -1 -5 9 -11 -9 11 2 2 -4 2
1 2 -0 -1 -0 -7 -3 1 -1 3 -13 0 2 1 -1 -1 4 2 2 -2 1 3 2 -0 -1 -4 -3 -2 -3 -0 6 4 -0 -5 3 -3 -5 9 12 -2 1 -2 -1 -4
-5 -3 -1 2 2 -6 -1 -4 0 -5 -4 2 1 3 -3 -2 -1 1 1 1 5 -2 -1 -1 1 4 4 5 1 2 -3 2 -4 -5 7 4 1 2 1 0 -1 -4 -3 -2
-3 -1 -3 -9 -11 -4 3 -2 2 -0 0 -0 1 7 -2 -2 -1 1 -1 4 2 2 1 0 1 0 3 -5 -1 -1 1 4 2 1 1 4 5 0 -4 -5 -3 -1 0 -0
-1 0 -1 -3 -4 -1 1 -1 3 0 -0 0 2 4 1 -2 1 -1 1 2 0 2 2 1 2 1 -2 2 3 6 2 3 3 2 -1 -5 -4 -3 -0 1 -0 -1 0 1
-2 0 -1 -4 -4 -0 2 -1 -1 -0 -2 0 2 2 -2 -1 2 1 -1 1 2 1 0 3 1 2 1 5 4 4 1 2 -3 -1 -1 1 2 2 0 0 1 1 2 1
-3 -5 -2 -5 1 0 1 1 -0 -0 -1 -0 1 1 3 -1 -1 2 2 3 -3 1 1 2 1 1 -1 1 -0 1 3 3 1 1 1 0 -0 -0 1 1 1 0 -1 -2
Height
1465 1466 1468 1466 1467 1465 1462 1464 1468 1458 1453 1457 1458 1455 1451 1449 1445 1443 1444 1444 1443 1443 1445 1446 1448 1449 1451 1454 1457 1460 1461 1464 1469 1471 1473 1477 1479 1484 1488 1490 1492 1496 1500 1503
1469 1470 1462 1461 1460 1462 1463 1468 1470 1463 1458 1458 1458 1450 1445 1439 1433 1435 1436 1436 1436 1436 1437 1439 1440 1442 1444 1446 1449 1454 1456 1456 1461 1465 1469 1469 1472 1477 1481 1485 1488 1493 1497 1499
1465 1460 1461 1463 1464 1468 1470 1471 1472 1471 1463 1460 1458 1443 1432 1419 1420 1422 1424 1426 1429 1430 1431 1433 1435 1436 1438 1438 1442 1445 1449 1452 1454 1458 1461 1462 1467 1470 1474 1479 1483 1488 1493 1496
1465 1460 1461 1463 1465 1466 1473 1465 1468 1469 1473 1478 1465 1469 1435 1422 1418 1415 1414 1417 1420 1422 1424 1426 1427 1428 1430 1432 1435 1440 1443 1446 1448 1448 1452 1454 1457 1460 1464 1471 1477 1483 1489 1491
1462 1460 1463 1465 1463 1464 1470 1469 1472 1474 1478 1482 1470 1481 1431 1418 1416 1411 1409 1411 1415 1417 1419 1420 1421 1422 1423 1427 1429 1431 1436 1440 1442 1440 1445 1450 1452 1455 1460 1466 1473 1479 1483 1487
1458 1461 1461 1462 1463 1467 1470 1471 1474 1477 1480 1495 1467 1463 1422 1417 1408 1408 1406 1409 1411 1413 1414 1416 1418 1419 1420 1421 1421 1424 1428 1432 1435 1433 1439 1445 1445 1449 1454 1461 1466 1472 1477 1482
1461 1462 1461 1463 1465 1468 1470 1475 1489 1492 1487 1483 1439 1453 1412 1405 1406 1402 1406 1407 1408 1410 1412 1414 1415 1415 1414 1414 1415 1416 1420 1422 1427 1429 1435 1440 1440 1444 1448 1454 1460 1465 1471 1477
1468 1467 1459 1460 1463 1467 1470 1474 1484 1475 1471 1460 1444 1438 1416 1398 1399 1401 1402 1404 1403 1406 1408 1409 1413 1412 1409 1407 1407 1410 1413 1417 1421 1423 1430 1436 1435 1438 1445 1452 1457 1463 1467 1471
1459 1455 1450 1456 1459 1461 1470 1478 1471 1477 1467 1479 1445 1418 1404 1396 1395 1393 1393 1395 1395 1400 1403 1405 1405 1408 1406 1403 1402 1404 1407 1413 1416 1421 1426 1430 1432 1436 1441 1447 1453 1459 1464 1467
1448 1456 1452 1456 1459 1461 1464 1466 1482 1482 1497 1467 1430 1419 1414 1398 1398 1395 1394 1393 1393 1394 1397 1400 1402 1404 1401 1398 1398 1399 1401 1406 1410 1416 1419 1426 1428 1434 1440 1445 1449 1456 1459 1465
1449 1452 1462 1462 1463 1461 1466 1467 1469 1469 1468 1476 1445 1419 1392 1399 1398 1398 1397 1396 1395 1394 1395 1396 1398 1400 1397 1395 1394 1395 1396 1402 1404 1408 1414 1421 1426 1431 1436 1443 1448 1453 1458 1463
1450 1454 1463 1460 1453 1453 1454 1460 1463 1468 1466 1455 1446 1414 1395 1397 1398 1398 1398 1395 1395 1394 1393 1394 1396 1396 1395 1391 1392 1391 1394 1398 1398 1404 1411 1419 1423 1427 1434 1440 1445 1451 1455 1461
1449 1458 1466 1460 1451 1449 1451 1451 1452 1452 1452 1450 1455 1410 1386 1392 1397 1394 1393 1392 1393 1393 1394 1392 1391 1391 1391 1389 1387 1390 1391 1391 1396 1403 1409 1415 1420 1424 1431 1436 1444 1448 1455 1459
1447 1449 1458 1460 1447 1451 1462 1452 1447 1448 1450 1436 1426 1401 1399 1394 1391 1391 1391 1389 1389 1389 1390 1389 1387 1388 1388 1388 1384 1389 1386 1390 1398 1403 1408 1412 1418 1424 1429 1435 1442 1446 1454 1459
1449 1455 1455 1447 1443 1444 1446 1442 1439 1444 1438 1435 1416 1414 1396 1394 1391 1388 1387 1388 1386 1386 1384 1386 1386 1385 1387 1389 1383 1387 1386 1392 1398 1404 1407 1412 1418 1423 1428 1435 1440 1447 1453 1458
1449 1460 1452 1447 1440 1440 1439 1432 1431 1428 1426 1421 1417 1403 1396 1392 1388 1382 1382 1382 1385 1385 1385 1384 1384 1385 1388 1387 1383 1387 1389 1395 1401 1405 1408 1411 1416 1421 1429 1434 1439 1445 1450 1456
1450 1455 1455 1443 1431 1433 1429 1421 1419 1420 1415 1413 1407 1401 1393 1385 1385 1382 1382 1383 1384 1384 1383 1382 1382 1382 1384 1385 1385 1388 1392 1397 1403 1406 1409 1414 1418 1424 1428 1433 1443 1446 1450 1452
1447 1453 1454 1445 1439 1432 1410 1409 1411 1413 1407 1403 1401 1396 1391 1385 1383 1382 1381 1379 1378 1377 1376 1378 1377 1379 1382 1384 1386 1389 1393 1399 1403 1405 1408 1414 1419 1424 1432 1438 1444 1451 1450 1452
1442 1449 1447 1441 1437 1420 1405 1406 1408 1410 1405 1400 1398 1392 1386 1380 1380 1382 1381 1377 1373 1374 1372 1373 1376 1379 1381 1384 1387 1391 1396 1401 1405 1409 1414 1419 1425 1435 1438 1441 1444 1446 1450 1454
1439 1444 1444 1443 1437 1428 1405 1403 1404 1406 1407 1397 1394 1393 1388 1383 1380 1387 1383 1380 1377 1376 1377 1377 1379 1381 1384 1389 1391 1395 1403 1409 1412 1415 1418 1418 1425 1430 1443 1445 1444 1446 1451 1451
1438 1440 1440 1438 1435 1423 1402 1401 1403 1407 1405 1393 1392 1393 1391 1391 1393 1391 1388 1383 1380 1380 1382 1383 1385 1386 1391 1396 1401 1404 1406 1407 1409 1411 1422 1425 1434 1439 1441 1442 1444 1447 1451 1453
1426 1432 1433 1433 1434 1433 1400 1400 1404 1400 1394 1394 1392 1392 1393 1393 1393 1392 1391 1389 1389 1387 1388 1388 1387 1390 1396 1397 1402 1401 1408 1414 1418 1424 1430 1433 1436 1438 1440 1443 1447 1449 1451 1451
1421 1412 1411 1417 1414 1399 1397 1395 1394 1394 1394 1393 1392 1392 1392 1393 1394 1394 1395 1395 1394 1395 1396 1398 1398 1400 1405 1410 1415 1415 1417 1420 1423 1427 1430 1434 1437 1440 1443 1446 1448 1450 1450 1450
1408 1405 1411 1408 1395 1395 1395 1394 1393 1392 1392 1390 1391 1392 1391 1392 1394 1395 1397 1398 1399 1400 1401 1402 1404 1407 1410 1415 1417 1418 1420 1423 1427 1430 1434 1437 1440 1443 1445 1447 1448 1449 1448 1448
1412 1410 1407 1404 1397 1392 1394 1394 1393 1392 1390 1391 1390 1391 1391 1393 1394 1395 1397 1400 1401 1402 1403 1406 1408 1410 1413 1417 1420 1422 1425 1428 1431 1434 1437 1440 1442 1444 1446 1447 1447 1446 1446 1445
1407 1404 1407 1403 1395 1395 1395 1393 1392 1391 1391 1392 1392 1391 1393 1395 1396 1398 1399 1400 1402 1404 1407 1409 1411 1414 1417 1421 1423 1426 1429 1432 1434 1436 1439 1441 1443 1444 1445 1445 1445 1445 1444 1443